www.pogodaiklimat.ru
ПОГОДА в Шилке
Время
(UTC), дата
15 26.06
18 26.06
21 26.06
00 27.06
03 27.06
06 27.06
09 27.06
12 27.06
15 27.06
18 27.06
21 27.06
00 28.06
03 28.06
06 28.06
09 28.06
12 28.06
15 28.06
18 28.06
21 28.06
00 29.06
03 29.06
06 29.06
09 29.06
12 29.06
15 29.06
18 29.06
21 29.06
00 30.06
03 30.06
06 30.06
09 30.06
12 30.06
15 30.06
18 30.06
21 30.06
00 1.07
03 1.07
06 1.07
09 1.07
12 1.07
15 1.07
18 1.07
21 1.07
00 2.07
03 2.07
06 2.07
09 2.07
12 2.07
15 2.07
18 2.07
21 2.07
00 3.07
03 3.07
06 3.07
09 3.07
12 3.07
Ветер
(напр.,м/с)
Видим. Явления Облачность Т
(С)
Тd
(С)
f
(%)
Тe
(С)
Тes
(С)
Комфортность P
(гПа)
Po
(гПа)
Тmin
(С)
Tmax
(С)
R
(мм)
R24
(мм)
S
(см)
З 2 50 км 3/0
[Ac cuf]
+17.1 +11.1 68 +17 +17 1004.6 937.2
В 1 50 км 1/0
[Ac trans]
+11.6 +10.9 95 +11 +11 1006.4 937.6
ЮЗ 2 50 км ясно +10.7 +10.2 97 +9 +10 1007.4 938.3
В 2 50 км 4/1 1000 м
[Cu hum Ac trans]
+16.5 +11.4 72 +17 +22 1006.6 938.9 +9.7
ЮВ 3 50 км 3/3 1000 м
[Cu med, cong]
+24.2 +9.6 40 +25 +34 комфорт 1004.1 938.2
З 2 50 км 6/6 1000 м
[Cu med, cong]
+27.1 +6.7 27 +26 +32 жарко 1001.8 936.7
СВ 2 50 км 6/4 1000 м
[Cb calv Ci sp]
+27.5 +7.5 28 +27 +30 жарко 1000.7 935.7
В 3 50 км 6/4 1000 м
[Cu med, cong Ci fib]
+21.9 +10.1 47 +24 +24 комфорт 1002.7 936.4 +27.6
ЮВ 1 н/о н/о +17.5 +10.3 63 +19 +19 1004.6 937.3
В 1 50 км 3/0
[Ac trans]
+13.8 +10.1 78 +14 +14 1005.7 937.4
З 1 50 км ясно +11.1 +9.5 90 +11 +11 1007.1 938.1
В 3 50 км 6/0
[Ac cast Ci sp]
+18.9 +11.4 62 +20 +24 1005.7 938.6 +10.8
СВ 3 50 км 8/3 1000 м
[Cu med, cong Ac As Ci fib]
+24.8 +10.3 40 +26 +32 жарко 1003.4 937.7
В 3 50 км 8/3 1000 м
[Cb cap Ac cuf Ci sp]
+28.1 +7.8 28 +28 +33 жарко 1001.2 936.3
З 2 50 км 8/3 1000 м
[Cb cap Ac cuf Ci sp]
+27.2 +7.8 29 +27 +29 жарко 1000.3 935.3
С 4 50 км 9/4 1000 м
[Cu med, cong Ac cuf Ci sp]
+22.9 +11.5 49 +25 +25 комфорт 1001.9 935.9 +28.7
ЮВ 1 50 км 6/3 1000 м
[Cu med, cong Ac cuf]
+19.6 +12.4 63 +22 +22 комфорт 1003.6 936.8
ЮВ 2 50 км 9/3 1000 м
[Cu med, cong Ac cuf Ci ing]
+17.2 +12.1 72 +18 +18 1004.0 936.7
ЮЗ 2 50 км в посл. час ливневой дождь 10/5 1000 м
[Cb cap Ac cuf Ci ing]
+15.8 +13.3 85 +16 +16 1005.6 937.9
ЮВ 1 20 км слаб. ливневой дождь 10/8 1000 м
[Cb cap As op]
+15.6 +14.6 94 +16 +16 1007.1 939.3 +15.6 0.7
В 1 20 км слаб. ливневой дождь 10/10 600 м
[Cb cap]
+16.4 +15.2 93 +17 +17 1007.8 940.1 +15.5
В 2 50 км слаб. ливневой дождь 10/10 600 м
[Cb cap]
+19.2 +15.3 78 +21 +21 комфорт 1006.2 939.3
В 1 50 км {ливн. дождь} 9/5 1000 м
[Cb cap Ac cuf Ci sp]
+22.8 +13.6 56 +26 +28 жарко 1004.5 938.4
СВ 1 50 км {ливн. дождь} 10/6 600 м
[Cb calv Ac cuf Ci sp]
+19.8 +16.3 80 +23 +23 комфорт 1005.9 939.1 +22.8 3
С 2 50 км 10/8 1000 м
[Cb calv Ac cuf]
+18.1 +14.9 82 +19 +19 1006.4 939.2
З 2 50 км 9/8 1000 м
[Cb calv Ac cuf]
+16.8 +15.1 90 +17 +17 1007.2 939.7
ЮЗ 1 20 км слаб. ливневой дождь {гроза} 10/10 600 м
[Cb calv]
+15.7 +15.0 96 +16 +16 1008.4 940.5
З 2 10 км слаб. ливневой дождь {гроза} 10/10 600 м
[Cb calv]
+16.4 +15.2 93 +16 +16 1008.8 941.1 +15.6 4
В 1 50 км {ливн. дождь} 10/6 1000 м
[Cb calv Ci ing]
+20.9 +15.7 72 +25 +31 комфорт 1008.0 941.3
ЮВ 3 50 км гроза без осадков {ливн. дождь} 10/6 600 м
[Cb calv Ac cuf Ci ing]
+23.5 +16.2 64 +27 +29 душно 1006.0 940.0
С 2
{10}
50 км в посл. час гроза {ливн. дождь} 9/6 600 м
[Cb calv Ac cuf Ci ing]
+19.0 +16.3 84 +21 +22 комфорт 1007.6 940.5
СЗ 3 50 км {гроза, ливн. дождь} 8/4 1000 м
[Cb calv Ac cuf Ci sp]
+18.8 +16.5 86 +20 +20 1008.6 941.4 +24.5 1
В 2 50 км 8/4 1000 м
[Cb calv Ac cuf Ci sp]
+16.1 +14.9 93 +16 +16 1011.4 943.4
Ю 2 50 км {гроза} 6/3 1000 м
[Cb calv Ac cuf]
+14.8 +14.3 97 +14 +14 1011.1 942.8
ЮЗ 1 н/о н/о +14.5 +13.9 96 +15 +15 1012.0 943.6
ЮВ 1 20 км 3/0
[Ac trans]
+20.3 +15.8 75 +24 +31 комфорт 1011.1 944.1 +14.2
СВ 1 50 км 3/1 1000 м
[Cb calv Ac cast Ci sp]
+25.0 +15.0 54 +28 +43 жарко 1009.6 943.6
В 2 50 км 5/3 1000 м
[Cb calv Ac cast Ci sp]
+28.4 +10.5 33 +29 +38 жарко 1007.0 941.8
В 1 50 км 8/4 1000 м
[Cb calv Ac cuf Ci sp]
+28.9 +9.7 30 +29 +31 жарко 1006.0 941.0
С 3
{10}
50 км 9/3 1000 м
[Cb calv Ac cuf Ci sp]
+23.2 +14.0 56 +27 +27 душно 1008.4 942.1 +29.8
СЗ 2 50 км 6/0
[Ci fib]
+18.5 +13.0 70 +20 +20 1009.8 942.4
В 1 50 км 5/0
[Ci fib]
+16.6 +13.1 80 +17 +17 1011.0 943.1
СВ 1 50 км 6/3 1000 м
[Cu med, cong Ci sp]
+15.3 +11.3 77 +16 +16 1012.1 943.8
ЮВ 2 20 км 6/0
[Ci sp]
+20.0 +13.3 65 +23 +29 комфорт 1011.7 944.5 +13.9
В 2 50 км ясно +25.9 +12.9 45 +28 +44 жарко 1009.5 943.8
В 4 50 км 6/3 1000 м
[Cb calv Ac cast Ci ing]
+29.5 +11.3 32 +30 +35 жарко 1006.5 941.7
ЮВ 5
{10}
20 км гроза без осадков 8/3 1000 м
[Cb calv Ac cuf Ci ing]
+28.7 +10.0 31 +29 +30 жарко 1006.2 941.1
СВ 4 50 км в посл. час крупа {гроза} 9/4 1000 м
[Cb calv Ac cuf Ci ing]
+22.6 +11.4 49 +25 +25 комфорт 1009.3 942.8 +30.6
В 2 50 км 6/3 1000 м
[Cb cap Ac cuf Ci ing]
+17.9 +12.1 69 +18 +18 1010.3 942.7
ЮЗ 1 50 км 5/1 1000 м
[Cb cap Ac cuf]
+15.7 +11.8 78 +16 +16 1011.1 942.8
Ю 1 50 км 4/0
[Ac cuf]
+14.0 +11.0 82 +14 +15 1011.3 942.7
ЮЗ 2 20 км 4/0
[As trans]
+19.0 +13.0 68 +21 +26 комфорт 1010.1 942.8 +13.3
Ю 1 20 км 8/3 1000 м
[Cu med, cong Ci fib]
+27.0 +12.4 40 +28 +39 жарко 1006.5 941.1
ЮЗ 4 20 км 8/4 1000 м
[Cb calv Ac cuf Ci sp]
+30.5 +8.7 26 +30 +34 жарко 1003.4 938.9
З 4 20 км 8/5 1000 м
[Cb calv Ac cuf Ci ing]
+29.9 +7.5 25 +29 +30 жарко 1002.2 937.6
ЮЗ 2 20 км 8/5 1000 м
[Cb calv Ac cuf Ci ing]
+24.5 +13.9 52 +27 +27 жарко 1002.9 937.2 +31.0
Местоположение метеостанции Шилка (Забайкальский край, Россия): широта 51.87 долгота 116.00 высота над уровнем моря 597 м.
В архиве по умолчанию представлена погода в Шилке за последнюю неделю. Архивные данные за месяц целиком и за предыдущие месяцы, начиная с января 2011 года, Вы можете получить, выбрав интересующий диапазон дат из раскрывающегося списка и нажав кнопку "Найти!".
*Определитесь, кто Вы:
Внимание! Время в таблицах - всемирное. Для получения местного времени необходимо прибавить поправку, которая равна 9 ч.
Смотрите также архив погоды в соседних городах и на ближайших метеорологических станциях:
Партнеры нашего сайта:      
Пояснения к столбцам:
  • Ветер - указаны скорость ветра в м/с - средняя за 10 мин, порывы в срок и между сроками (в фигурных скобках) и направление, откуда дует ветер: С - северный,
  • СВ - северо-восточный, В - восточный, ЮВ - юго-восточный, Ю - южный, ЮЗ - юго-западный, З - западный, СЗ - северо-западный.
  • Видимость - горизонтальная дальность видимости в метрах или километрах. При видимости от 1 до 10 км при отсутствии осадков обычно наблюдается дымка, при ухудшении видимости до 1 км и менее - туман. В сухую погоду видимость может ухудшаться дымом, пылью или мглою.
  • Явления - указаны атмосферные явления, наблюдавшиеся в срок или в последний час перед сроком; фигурными скобками обозначены явления, наблюдавшиеся между сроками (за 1-3 часа до срока); квадратными скобками обозначены град или гололедные отложения с указанием их диаметра в мм.
  • Облачность - указаны через наклонную черту общая и нижняя облачность в баллах и высота нижней границы облаков в метрах; квадратными скобками обозначены формы облаков: Ci - перистые, Cs - перисто-слоистые, Cc - перисто-кучевые, Ac - высококучевые, As - высокослоистые, Sc - слоисто-кучевые, Ns - слоисто-дождевые, Cu - кучевые, Cb - кучево-дождевые. Подробнее классификацию облаков см. в Атласе облаков (PDF).
  • T - Температура воздуха - температура, измеренная на высоте 2 м над землей.
  • Td - Температура точки росы - температура, при понижении до которой содержащийся в воздухе водяной пар достигнет насыщения.
  • f - Относительная влажность воздуха - влажноcть воздуха, измеренная на высоте 2 м над землей.
  • Te - Эффективная температура - температура, которую ощущает одетый по сезону человек в тени. Характеристика душности погоды. При расчете учитывается влияние влажности воздуха и скорости ветра на теплоощущения человека.
  • Tes - Эффективная температура на солнце - температура, которую ощущает человек, с поправкой на солнечный нагрев. Характеристика знойности погоды. Зависит от высоты солнца над горизонтом, облачности и скорости ветра. Ночью, в пасмурную погоду, а также при ветре 12 м/с и более поправка равна нулю.
  • P - Атмосферное давление - приведенное к уровню моря атмосферное давление.
  • Po - Атмосферное давление - измеренное на уровне метеостанции атмосферное давление.
  • Tmin - Минимальная температура - минимум температуры воздуха на высоте 2 м над землей.
  • Tmax - Максимальная температура - максимум температуры воздуха на высоте 2 м над землей.
  • R - Количество осадков - Количество выпавших осадков за период времени, мм. При наведении курсора мыши на число - период времени, за который выпало указанное количество осадков.
  • R24 - Количество осадков - Количество выпавших осадков за 24 часа, мм.
  • S - Снежный покров - Высота снежного покрова, см. При наведении курсора мыши на число - состояние снежного покрова и степень покрытия местности в баллах.